GSAT-31

Last updated on Sept. 24, 2020, 5:43 a.m. UTC

1 44035U 19007B   20267.47647039  .00000105  00000-0  00000-0 0  9996
2 44035   0.0409  97.1842 0003487 122.4629   2.5510  1.00270910  5996
UTC
Height (km)
Latitude
Longitude
Inclination
Orbital Period
UTC large
Height (km)
Speed (km/s)
/
Latitude / Longitude
Inclination (degrees)
Orbital Period (minutes)
Azimuth
Elevation
Range (km)
Doppler Factor
iOS Compass Heading
iOS Angle

Next 30 passes for location: Hong Kong

Rise time Rise Azimuth (degrees) Set time Set Azimuth (degrees) Duration Max altitude (degrees)

No matching passes for this satellites